Starlink 33881

operational
NORAD ID: 63779 Int'l Des: 2025-091 Owner: SPXS Country: US Constellation: starlink
LEOCIRCULAR

关于 Starlink 33881

正在加载描述...

实时位置

正在加载3D地球...

即将过境

高度历史

Altitude vs Time

uPlot chart will show altitude changes over time

两行轨道根数

1 63779U 25091E 25305.04822835 .00041789 00000-0 15194-2 0 9997
2 63779 43.0066 59.4145 0002548 257.4629 102.5938 15.27580200 29228
Epoch: Nov 1, 2025 • Age: 20 hours

当前状态

高度 494.3 km
速度 7.62 km/s
星下点 -42.58°S, 23.23°W
发射日期 May 2, 2025
运行时间 0.5 years
类型 internet

技术详情

分类 Payload
质量 575.00 kg
干质量 530.00 kg
总质量 575.00 kg
长度 0.30 m
直径 4.10 m
跨度 29.00 m
形状 Box + pan
制造商 SPXS
平台类型 Starlink V2MO
阶段状态 In Orbit
所有者/国家 SPXS/US

大型星座

Loading constellations...